Aérodrome :
LOGIN :

S'inscrire | Disclaimer

   EN    FR    IT 

 










Légende :    VFR   VFR Marginal   IFR   IFR Intensif   IFR Très Intensif
Visi : 
Plafond : 
>= 8 km
>= 3000ft
5 à 8 km
1000 à 3000 ft
1500m à 5 km
500 à 1000 ft
800 à 1500m
200 à 500 ft
< 800m
< 200 ft
Symboles :   Orages  Brouillard  Fortes neiges  Fortes précipitations  Vent > 20 kt
SIGMETs :   Divers  Orages  Givrage  Turbulence  Onde Orograph.  Cendres Volcan.







- Altitude de l'aérodrome : 157 ft
- Code IATA : LIL
- Voir les cartes d'approche


LFQQ - Lille Lesquin

DERNIER METAR :
  • 240430Z AUTO 24004KT CAVOK 15/14 Q1016 TEMPO BKN008

METARs EXPIRÉS :
  • 240400Z AUTO 24004KT CAVOK 15/13 Q1016 TEMPO BKN008
  • 240330Z AUTO 23005KT CAVOK 15/13 Q1016 TEMPO BKN008
  • 240300Z AUTO 22005KT CAVOK 15/14 Q1016 BECMG BKN008
  • 240230Z AUTO 22005KT CAVOK 15/14 Q1016 BECMG BKN008
  • 240200Z AUTO 22005KT CAVOK 15/14 Q1016 BECMG BKN008

TAF AMD TAF LFQQ
Valide du 24 à 03h jusqu'au 25 à 06h UTC


240329Z 2403/2506 23006KT CAVOK
PROB40
TEMPO 2403/2406 BKN008
BECMG 2422/2424 VRB02KT
ATIS : +33 3 20 16 19 54
Pas de NOTAMs connus pour ce terrain.



MET'MAP, la Météo Aéronautique d'un coup d'oeil ! - Copyright ORBIFLY Décembre 2007 - Disclaimer

ORBIFLY MET'MAP TEAM :

Programmation & Développement : Alexandra Zaïnal
Conception & Développement : Baudouin d'Aumeries
Co-Programmation & Développement : Marc-Olivier Méhu
Soutien technique & logistique : Manuel Goepfert

Contact : metmap@orbifly.com




SOURCES & CREDITS :

   NOAA